#timestamp,LO_Frequency,Hit,StdDev 
1625252415.1,286046998.1,N
1625252435.9,286046998.2,N
1625252455.7,286047000.8,N
1625252475.6,286047000.5,N
1625252495.4,286047000.4,N
1625252515.2,286047000.5,N
1625252535.1,286047000.8,N
1625252536.0,286047000.8,N
1625252555.8,286047001.0,N
1625252575.7,286046998.6,N
1625252595.5,286047000.6,N
1625252615.3,286046999.9,N
1625252635.2,286047000.8,N
1625252655.9,286047001.1,N
1625252675.7,286047000.5,N
1625252695.6,286047001.2,N
1625252715.4,286047001.1,N
1625252735.3,286046998.1,N
1625252755.1,286046999.3,N
1625252756.0,286046999.3,N
1625252775.8,286046998.9,N
1625252795.7,286047000.7,N
1625252815.5,286047001.6,N
1625252835.3,286047001.5,N
1625252855.2,286047002.0,N
1625252875.0,286046999.8,N
1625252875.9,286046999.8,N
1625252895.8,286047002.2,N
1625252915.6,286047003.2,N
1625252935.4,286047004.6,Y
1625252955.3,286047006.2,P
1625252975.1,286047009.2,P
1625252995.8,286047006.4,N
1625253015.7,286047008.4,N
1625253035.5,286047008.3,N
1625253055.4,286047010.6,Y
1625253075.2,286047001.3,P
1625253095.0,286047001.4,N
1625253095.9,286047001.4,N
1625253115.8,286047004.4,N
1625253135.6,286047003.4,N
1625253155.4,286047005.9,Y
1625253175.3,286046999.7,P
1625253195.1,286047002.7,N
1625253215.9,286047002.7,N
1625253235.7,286047002.3,N
1625253255.5,286047001.6,N
1625253275.4,286047002.1,N
1625253295.2,286047002.0,N
1625253315.0,286047001.4,N
1625253315.9,286047001.4,N
1625253335.8,286047001.7,N
1625253355.6,286047001.7,N
1625253375.5,286047001.8,N
1625253395.3,286047001.9,N
1625253415.1,286047003.9,Y
1625253435.9,286047000.0,P
1625253455.7,286047002.2,N
1625253475.6,286047002.8,N
1625253495.4,286046999.7,N
1625253515.2,286047002.5,N
1625253535.1,286047002.8,N
1625253536.0,286047002.8,N
1625253555.8,286047001.1,N
1625253575.7,286046998.3,N
1625253595.5,286046999.5,N
1625253615.3,286046996.7,N
1625253635.2,286046999.5,N
1625253655.9,286046996.9,N
1625253675.7,286046999.0,N
1625253695.6,286046998.6,N
1625253715.4,286046999.2,N
1625253735.3,286046999.2,N
1625253755.1,286046999.2,N
1625253756.0,286046999.2,N
1625253775.8,286046998.2,N
1625253795.7,286046997.2,N
1625253815.5,286046997.6,N
1625253835.3,286046995.0,N
1625253855.2,286046995.3,N
1625253875.0,286046993.7,N
1625253875.9,286046993.7,N
1625253895.8,286046993.8,N
1625253915.6,286046994.5,N
1625253935.4,286046996.4,N
1625253955.3,286046993.5,N
1625253975.1,286046994.2,N
1625253995.8,286046994.2,N
1625254015.7,286046994.5,N
1625254035.5,286046991.9,N
1625254055.4,286046993.0,N
1625254075.2,286046990.4,Y
1625254095.0,286046993.4,P
1625254095.9,286046993.4,P
1625254115.8,286046996.0,N
1625254135.6,286046995.9,N
1625254155.5,286046993.9,Y
1625254175.3,286046999.2,P
1625254195.1,286046999.0,N
1625254215.9,286046998.3,N
1625254235.7,286047000.7,N
1625254255.5,286046998.8,N
1625254275.4,286046998.7,N
1625254295.2,286046998.7,N
1625254315.1,286046999.2,N
1625254316.0,286046999.2,N
1625254335.8,286046998.8,N
1625254355.6,286046999.5,N
1625254375.5,286046996.7,N
1625254395.3,286046999.6,N
1625254415.1,286046997.5,N
1625254435.9,286046997.7,N
1625254455.7,286046995.4,Y
1625254475.6,286046997.4,P
1625254495.4,286046997.5,P
1625254515.2,286046997.5,P
1625254535.1,286046997.4,Y
1625254536.0,286046997.4,P
1625254555.8,286047000.8,P
1625254575.6,286046999.7,N
1625254595.5,286047002.8,N
1625254615.3,286046999.8,N
1625254635.2,286047000.0,N
1625254655.9,286047000.2,N
1625254675.7,286047002.8,N
1625254695.6,286047000.4,N
1625254715.4,286047000.3,N
1625254735.3,286047002.4,N
1625254755.1,286047000.1,N
1625254756.0,286047000.1,N
1625254775.8,286046999.9,N
1625254795.7,286047000.1,N
1625254815.5,286047002.7,N
1625254835.3,286047000.3,N
1625254855.2,286047002.8,N
1625254875.0,286046999.9,N
1625254875.9,286046999.9,N
1625254895.8,286046998.3,N
1625254915.6,286046998.5,N
1625254935.5,286046997.3,N
1625254955.3,286046996.8,N
1625254975.1,286046995.0,N
1625254995.9,286046998.0,N
1625255015.7,286046997.5,N
1625255035.5,286046995.8,N
1625255055.4,286046995.7,N
1625255075.2,286046993.3,Y
1625255095.0,286046995.8,P
1625255096.0,286046995.8,N
1625255115.8,286046995.1,N
1625255135.6,286046993.4,Y
1625255155.5,286046996.8,P
1625255175.3,286046997.8,P
1625255195.1,286046996.8,P
1625255215.9,286046999.1,N
1625255235.7,286046996.6,Y
1625255255.6,286046999.9,P
1625255275.4,286047000.3,N
1625255295.2,286047002.2,N
1625255315.1,286047001.4,N
1625255316.0,286047001.4,N
1625255335.8,286047003.5,N
1625255355.7,286047007.1,Y
1625255375.5,286047009.0,P
1625255395.3,286047008.0,N
1625255415.2,286047008.3,N
1625255435.9,286047008.4,N
1625255455.7,286047007.7,N
1625255475.6,286047010.5,Y
1625255495.4,286047003.9,P
1625255515.3,286047003.8,N
1625255535.1,286047004.0,N
1625255536.0,286047004.0,N
1625255555.8,286047004.0,Y
1625255575.7,286046999.2,P
1625255595.5,286046997.0,N
1625255615.4,286046996.8,N
1625255635.2,286046996.6,N
1625255655.0,286046997.7,N
1625255655.9,286046997.7,N
1625255675.8,286046997.8,N
1625255695.6,286046999.3,N
1625255715.4,286046999.1,N
1625255735.3,286046998.8,N
1625255755.1,286046998.9,N
1625255775.9,286047000.8,N
1625255795.7,286046999.1,N
1625255815.5,286047000.8,N
1625255835.4,286047000.4,N
1625255855.2,286046998.2,N
1625255875.0,286046998.8,N
1625255875.9,286046998.8,N
1625255895.8,286046999.4,N
1625255915.6,286046999.4,N
1625255935.5,286046998.8,N
1625255955.3,286046998.5,N
1625255975.1,286046998.7,N
1625255995.9,286046999.0,N
